KC9UAW Weather Reports


time (UTC)temp
C
wind
direction
speed
KPH
gust
KPH
rain 1hr
cm
rain 24hr
cm
rain mn
cm
humidity
%
barometer
mb
20260906131504 23 54 4.8 12.9 0.00 0.00 0.00 90 1016.2
20260906130503 22 59 4.8 9.7 0.00 0.00 0.00 91 1015.7
20260906130003 22 47 8.0 9.7 0.00 0.00 0.00 91 1015.7
20260906125504 22 51 8.0 12.9 0.00 0.00 0.00 91 1015.6
20260906125007 22 35 9.7 16.1 0.00 0.00 0.00 91 1015.6
20260906124504 22 48 9.7 16.1 0.00 0.00 0.00 91 1015.6
20260906123007 22 46 4.8 12.9 0.00 0.00 0.00 91 1015.5
20260906122007 22 32 3.2 12.9 0.00 0.00 0.00 91 1015.4
20260906121504 22 36 3.2 8.0 0.00 0.00 0.00 91 1015.4
20260906121007 22 16 1.6 3.2 0.00 0.00 0.00 91 1015.1
20260906120504 22 30 1.6 3.2 0.00 0.00 0.00 91 1015.1
20260906120003 22 52 3.2 3.2 0.00 0.00 0.00 91 1015.1
20260906115504 22 33 3.2 3.2 0.00 0.00 0.00 91 1015.1
20260906115007 22 52 3.2 3.2 0.00 0.00 0.00 91 1015.1
20260906114504 22 41 3.2 3.2 0.00 0.00 0.00 91 1015.1
20260906113504 22 34 3.2 3.2 0.00 0.00 0.00 90 1014.9
20260906113007 22 38 3.2 3.2 0.00 0.00 0.00 90 1014.9
20260906112007 22 63 3.2 4.8 0.00 0.00 0.00 90 1014.9
20260906111503 22 56 3.2 3.2 0.00 0.00 0.00 90 1014.9
20260906111007 23 51 3.2 8.0 0.00 0.00 0.00 90 1014.7
20260906110504 23 41 3.2 8.0 0.00 0.00 0.00 90 1014.7
20260906110004 23 45 1.6 8.0 0.00 0.00 0.00 90 1014.7
20260906105503 23 49 1.6 3.2 0.00 0.00 0.00 90 1014.6
20260906105006 23 61 3.2 3.2 0.00 0.00 0.00 90 1014.6
20260906104503 23 61 3.2 3.2 0.00 0.00 0.00 89 1014.6
20260906104006 23 65 3.2 3.2 0.00 0.00 0.00 89 1014.6
20260906103504 23 43 3.2 4.8 0.00 0.00 0.00 89 1014.6
20260906102504 23 41 3.2 4.8 0.00 0.00 0.00 89 1014.4
20260906102007 23 47 3.2 3.2 0.00 0.00 0.00 89 1014.4
20260906101503 23 38 3.2 8.0 0.00 0.00 0.00 89 1014.4
20260906101007 23 54 3.2 8.0 0.00 0.00 0.00 89 1014.4
20260906100004 23 48 3.2 8.0 0.00 0.00 0.00 89 1014.4
20260906095503 23 52 3.2 8.0 0.00 0.00 0.00 88 1014.3
20260906095007 23 40 3.2 3.2 0.00 0.00 0.00 88 1014.3
20260906094504 23 25 3.2 4.8 0.00 0.00 0.00 88 1014.3
20260906094007 24 45 3.2 9.7 0.00 0.00 0.00 88 1014.1
20260906093006 24 51 3.2 9.7 0.00 0.00 0.00 88 1014.1
20260906091503 24 41 4.8 12.9 0.00 0.00 0.00 87 1014.0
20260906091006 24 47 3.2 12.9 0.00 0.00 0.00 87 1013.9
20260906090004 24 46 3.2 8.0 0.00 0.00 0.00 87 1013.9
20260906085007 24 54 3.2 8.0 0.00 0.00 0.00 87 1013.7
20260906084503 24 58 3.2 8.0 0.00 0.00 0.00 87 1013.7
20260906084006 24 53 3.2 8.0 0.00 0.00 0.00 87 1013.9
20260906083504 25 53 3.2 8.0 0.00 0.00 0.00 87 1013.9
20260906082504 25 58 3.2 8.0 0.00 0.00 0.00 87 1013.9
20260906082007 25 54 8.0 11.3 0.00 0.00 0.00 87 1013.9
20260906081504 25 67 8.0 14.5 0.00 0.00 0.00 87 1013.9
20260906081007 25 58 3.2 14.5 0.00 0.00 0.00 87 1013.8
20260906080503 25 39 3.2 11.3 0.00 0.00 0.00 88 1013.8
20260906080003 25 53 3.2 9.7 0.00 0.00 0.00 88 1013.8
20260906075504 25 56 3.2 8.0 0.00 0.00 0.00 88 1013.7
20260906075007 25 56 3.2 8.0 0.00 0.00 0.00 88 1013.7
20260906074503 25 53 3.2 8.0 0.00 0.00 0.00 88 1013.7
20260906074007 25 60 3.2 3.2 0.00 0.00 0.00 87 1013.6
20260906073504 25 52 3.2 3.2 0.00 0.00 0.00 87 1013.6
20260906072503 26 63 1.6 3.2 0.00 0.00 0.00 86 1013.6
20260906072006 26 67 3.2 9.7 0.00 0.00 0.00 86 1013.6
20260906071504 26 65 3.2 9.7 0.00 0.00 0.00 86 1013.6
20260906071006 26 63 3.2 9.7 0.00 0.00 0.00 86 1013.7
20260906070504 26 76 4.8 9.7 0.00 0.00 0.00 86 1013.7
20260906070004 26 72 8.0 9.7 0.00 0.00 0.00 86 1013.7
20260906065006 26 74 3.2 16.1 0.00 0.00 0.00 86 1013.9
20260906064503 26 72 3.2 14.5 0.00 0.00 0.00 86 1013.9
20260906064007 26 78 4.8 11.3 0.00 0.00 0.00 86 1013.9
20260906063503 26 72 4.8 16.1 0.00 0.00 0.00 86 1013.9
20260906063006 26 94 8.0 16.1 0.00 0.00 0.00 86 1013.9
20260906062007 26 75 3.2 16.1 0.00 0.00 0.00 86 1013.9
20260906061503 26 74 3.2 11.3 0.00 0.00 0.00 86 1013.9
20260906061007 26 71 3.2 4.8 0.00 0.00 0.00 86 1014.0
20260906060003 26 72 3.2 4.8 0.00 0.00 0.00 86 1014.0
20260906055503 26 64 4.8 9.7 0.00 0.00 0.00 86 1014.0
20260906055007 26 66 8.0 11.3 0.00 0.00 0.00 87 1014.0
20260906054503 26 71 6.4 11.3 0.00 0.00 0.00 88 1014.0
20260906054006 26 70 0.0 11.3 0.00 0.00 0.00 88 1013.8
20260906053006 25 54 1.6 4.8 0.00 0.00 0.00 86 1013.8
20260906052007 26 58 1.6 3.2 0.00 0.00 0.00 86 1013.8
20260906051006 26 58 1.6 3.2 0.00 0.00 0.00 86 1013.7
20260906050503 26 57 1.6 3.2 0.00 0.00 0.00 85 1013.7
20260906045503 26 55 3.2 4.8 0.00 0.00 0.00 84 1013.5
20260906045007 26 55 0.0 4.8 0.00 0.00 0.00 84 1013.5
20260906044503 26 55 0.0 3.2 0.00 0.00 0.00 84 1013.5
20260906044007 26 55 0.0 3.2 0.00 0.00 0.00 84 1013.5
20260906043503 26 55 0.0 3.2 0.00 0.00 0.00 84 1013.5
20260906042503 26 55 0.0 3.2 0.00 0.00 0.00 84 1013.4
20260906042007 26 56 1.6 3.2 0.00 0.00 0.00 83 1013.4
20260906041006 26 56 3.2 3.2 0.00 0.00 0.00 83 1013.2
20260906040504 26 55 3.2 3.2 0.00 0.00 0.00 82 1013.2
20260906040003 26 55 0.0 3.2 0.00 0.00 0.00 82 1013.2
20260906035503 26 55 0.0 3.2 0.00 0.00 0.00 81 1013.1
20260906035007 27 54 1.6 3.2 0.00 0.00 0.00 80 1013.1
20260906034007 27 54 0.0 3.2 0.00 0.00 0.00 78 1013.0
20260906033503 27 54 0.0 3.2 0.00 0.00 0.00 77 1013.0
20260906033006 27 54 1.6 3.2 0.00 0.00 0.00 77 1013.0
20260906032503 27 54 3.2 3.2 0.00 0.00 0.00 78 1012.9
20260906031504 27 53 3.2 4.8 0.00 0.00 0.00 75 1012.9
20260906030503 28 54 1.6 3.2 0.00 0.00 0.00 76 1012.7
20260906030003 28 54 3.2 4.8 0.00 0.00 0.00 76 1012.7
20260906025503 27 54 3.2 8.0 0.00 0.00 0.00 74 1012.6
20260906025007 27 54 3.2 8.0 0.00 0.00 0.00 75 1012.6
20260906024503 27 57 3.2 4.8 0.00 0.00 0.00 75 1012.6
20260906024007 27 56 0.0 4.8 0.00 0.00 0.00 76 1012.4
20260906023006 27 57 0.0 3.2 0.00 0.00 0.00 75 1012.4
20260906022504 27 57 0.0 3.2 0.00 0.00 0.00 77 1012.3
20260906021503 27 57 0.0 3.2 0.00 0.00 0.00 74 1012.3
20260906021007 27 59 0.0 0.0 0.00 0.00 0.00 73 1012.2
20260906020504 28 59 0.0 0.0 0.00 0.00 0.00 74 1012.2
20260906015504 28 59 0.0 3.2 0.00 0.00 0.00 73 1011.9
20260906015006 28 59 0.0 3.2 0.00 0.00 0.00 72 1011.9
20260906013503 28 61 0.0 0.0 0.00 0.00 0.00 72 1011.8
20260906013006 29 61 0.0 0.0 0.00 0.00 0.00 72 1011.8
20260906012504 29 61 0.0 0.0 0.00 0.00 0.00 70 1011.8
20260906012007 29 61 0.0 0.0 0.00 0.00 0.00 68 1011.8
20260906011503 30 61 0.0 0.0 0.00 0.00 0.00 67 1011.8
20260906011006 30 61 0.0 0.0 0.00 0.00 0.00 67 1011.5
20260906010503 30 61 0.0 1.6 0.00 0.00 0.00 66 1011.5
20260906010004 30 61 0.0 3.2 0.00 0.00 0.00 66 1011.5
20260906005504 31 61 0.0 3.2 0.00 0.00 0.00 64 1011.4
20260906005006 31 61 3.2 3.2 0.00 0.00 0.00 63 1011.4
20260906004503 31 61 3.2 4.8 0.00 0.00 0.00 63 1011.4
20260906003503 31 61 3.2 8.0 0.00 0.00 0.00 60 1011.4
20260906003007 32 61 3.2 8.0 0.00 0.00 0.00 60 1011.4
20260906002007 32 61 4.8 8.0 0.00 0.00 0.00 58 1011.5
20260906001503 32 61 4.8 8.0 0.00 0.00 0.00 58 1011.5
20260906001007 32 55 8.0 9.7 0.00 0.00 0.00 57 1011.5
20260906000504 32 51 8.0 12.9 0.00 0.00 0.00 56 1011.5
20260906000004 33 51 9.7 16.1 0.00 0.00 0.00 56 1011.5
20260905235503 33 49 9.7 16.1 0.00 0.00 0.00 55 1011.5
20260905234504 33 31 9.7 16.1 0.00 0.00 0.00 53 1011.5
20260905233503 34 49 9.7 19.3 0.00 0.00 0.00 52 1011.4
20260905233006 35 17 4.8 19.3 0.00 0.00 0.00 51 1011.4
20260905232504 35 47 4.8 9.7 0.00 0.00 0.00 49 1011.4
20260905231503 35 45 4.8 11.3 0.00 0.00 0.00 48 1011.4
20260905231007 35 53 8.0 11.3 0.00 0.00 0.00 47 1011.5
20260905230504 35 68 8.0 11.3 0.00 0.00 0.00 49 1011.5
20260905230003 36 36 8.0 11.3 0.00 0.00 0.00 47 1011.5
20260905225503 36 58 8.0 11.3 0.00 0.00 0.00 46 1011.4
20260905225006 36 35 8.0 11.3 0.00 0.00 0.00 46 1011.4
20260905224504 36 26 8.0 11.3 0.00 0.00 0.00 46 1011.4
20260905224007 36 24 8.0 11.3 0.00 0.00 0.00 47 1011.4
20260905223504 36 48 8.0 11.3 0.00 0.00 0.00 46 1011.4
20260905223007 36 28 8.0 11.3 0.00 0.00 0.00 46 1011.4
20260905222503 36 47 8.0 12.9 0.00 0.00 0.00 45 1011.5
20260905221504 36 33 8.0 16.1 0.00 0.00 0.00 44 1011.5
20260905221006 36 47 9.7 16.1 0.00 0.00 0.00 44 1011.4
20260905220503 36 10 11.3 19.3 0.00 0.00 0.00 44 1011.4
20260905220003 36 23 12.9 22.5 0.00 0.00 0.00 44 1011.4
20260905215504 36 42 14.5 24.1 0.00 0.00 0.00 44 1011.1
20260905215006 36 21 14.5 24.1 0.00 0.00 0.00 44 1011.1
20260905214504 36 27 14.5 24.1 0.00 0.00 0.00 42 1011.1
20260905214007 37 50 12.9 27.4 0.00 0.00 0.00 42 1011.2
20260905213504 37 32 12.9 27.4 0.00 0.00 0.00 41 1011.2
20260905213007 37 42 8.0 24.1 0.00 0.00 0.00 40 1011.2
20260905212504 38 16 8.0 24.1 0.00 0.00 0.00 40 1011.3
20260905212006 37 11 8.0 16.1 0.00 0.00 0.00 41 1011.3
20260905211504 37 322 8.0 16.1 0.00 0.00 0.00 40 1011.3
20260905210504 37 310 8.0 14.5 0.00 0.00 0.00 39 1011.4
20260905210004 37 9 9.7 19.3 0.00 0.00 0.00 41 1011.4
20260905205503 37 32 9.7 22.5 0.00 0.00 0.00 40 1011.6
20260905205006 37 19 9.7 22.5 0.00 0.00 0.00 42 1011.6
20260905204007 37 44 9.7 19.3 0.00 0.00 0.00 39 1011.7
20260905203503 38 325 9.7 22.5 0.00 0.00 0.00 41 1011.7
20260905203006 37 313 9.7 22.5 0.00 0.00 0.00 39 1011.7
20260905202504 37 2 9.7 20.9 0.00 0.00 0.00 38 1011.8
20260905202006 37 307 9.7 19.3 0.00 0.00 0.00 40 1011.8
20260905201006 37 311 8.0 19.3 0.00 0.00 0.00 40 1012.0
20260905200004 37 306 9.7 19.3 0.00 0.00 0.00 40 1012.0
20260905195006 37 301 8.0 19.3 0.00 0.00 0.00 41 1012.2
20260905194503 37 315 8.0 20.9 0.00 0.00 0.00 41 1012.2
20260905194006 37 292 9.7 20.9 0.00 0.00 0.00 42 1012.5
20260905193504 37 308 9.7 20.9 0.00 0.00 0.00 41 1012.5
20260905193007 37 288 9.7 20.9 0.00 0.00 0.00 43 1012.5
20260905192504 37 13 9.7 16.1 0.00 0.00 0.00 43 1012.6
20260905191504 37 358 9.7 24.1 0.00 0.00 0.00 43 1012.6
20260905191006 36 38 8.0 24.1 0.00 0.00 0.00 45 1012.8
20260905190503 36 244 8.0 14.5 0.00 0.00 0.00 49 1012.8
20260905190003 37 307 8.0 19.3 0.00 0.00 0.00 43 1012.8
20260905185504 37 243 8.0 22.5 0.00 0.00 0.00 41 1012.9
20260905185006 37 298 9.7 22.5 0.00 0.00 0.00 44 1012.9
20260905184503 37 321 9.7 16.1 0.00 0.00 0.00 45 1012.9
20260905183503 37 20 11.3 20.9 0.00 0.00 0.00 46 1013.0
20260905183007 37 40 9.7 20.9 0.00 0.00 0.00 45 1013.0
20260905182503 37 29 9.7 20.9 0.00 0.00 0.00 47 1013.2
20260905182007 36 320 9.7 22.5 0.00 0.00 0.00 47 1013.2
20260905181503 36 318 9.7 22.5 0.00 0.00 0.00 46 1013.2
20260905181007 36 23 8.0 16.1 0.00 0.00 0.00 46 1013.3
20260905180504 36 4 8.0 12.9 0.00 0.00 0.00 47 1013.3
20260905180004 36 296 9.7 16.1 0.00 0.00 0.00 49 1013.3
20260905175504 36 353 9.7 16.1 0.00 0.00 0.00 49 1013.4
20260905175006 36 6 8.0 19.3 0.00 0.00 0.00 48 1013.4
20260905174503 36 334 8.0 19.3 0.00 0.00 0.00 49 1013.4
20260905174007 36 256 8.0 14.5 0.00 0.00 0.00 52 1013.5
20260905173504 36 266 8.0 14.5 0.00 0.00 0.00 49 1013.5
20260905173006 35 314 4.8 12.9 0.00 0.00 0.00 50 1013.5
20260905172503 35 300 4.8 11.3 0.00 0.00 0.00 50 1013.7
20260905172007 35 281 8.0 11.3 0.00 0.00 0.00 50 1013.7
20260905171504 35 273 8.0 11.3 0.00 0.00 0.00 50 1013.7
20260905171007 35 354 8.0 14.5 0.00 0.00 0.00 52 1014.0
20260905170004 35 309 8.0 14.5 0.00 0.00 0.00 53 1014.0
20260905165503 35 310 8.0 12.9 0.00 0.00 0.00 54 1014.1
20260905165006 35 299 8.0 14.5 0.00 0.00 0.00 54 1014.1
20260905164503 34 332 8.0 14.5 0.00 0.00 0.00 55 1014.1
20260905164007 34 3 8.0 14.5 0.00 0.00 0.00 55 1014.2
20260905163504 34 319 8.0 16.1 0.00 0.00 0.00 54 1014.2
20260905163007 34 350 8.0 16.1 0.00 0.00 0.00 55 1014.2
20260905162503 34 285 8.0 14.5 0.00 0.00 0.00 56 1014.2
20260905162006 33 292 8.0 14.5 0.00 0.00 0.00 56 1014.2
20260905161503 33 315 8.0 16.1 0.00 0.00 0.00 58 1014.2
20260905161007 33 320 9.7 16.1 0.00 0.00 0.00 57 1014.3
20260905160504 33 281 9.7 16.1 0.00 0.00 0.00 58 1014.3
20260905160004 33 283 9.7 20.9 0.00 0.00 0.00 62 1014.3
20260905155504 33 301 9.7 20.9 0.00 0.00 0.00 60 1014.4
20260905154503 32 325 8.0 14.5 0.00 0.00 0.00 62 1014.4
20260905154007 32 303 8.0 14.5 0.00 0.00 0.00 61 1014.3
20260905153504 32 310 8.0 14.5 0.00 0.00 0.00 63 1014.3
20260905153006 32 293 9.7 12.9 0.00 0.00 0.00 62 1014.3
20260905152007 31 308 8.0 16.1 0.00 0.00 0.00 65 1014.3
20260905151503 31 302 6.4 14.5 0.00 0.00 0.00 67 1014.3
20260905151007 30 311 3.2 12.9 0.00 0.00 0.00 69 1014.4
20260905150004 30 333 4.8 11.3 0.00 0.00 0.00 68 1014.4
20260905145006 30 299 8.0 12.9 0.00 0.00 0.00 68 1014.3
20260905144504 30 241 8.0 14.5 0.00 0.00 0.00 66 1014.3
20260905144006 30 277 8.0 14.5 0.00 0.00 0.00 68 1014.3
20260905143504 30 300 8.0 14.5 0.00 0.00 0.00 68 1014.3
20260905143007 30 300 9.7 16.1 0.00 0.00 0.00 67 1014.3
20260905142503 30 315 9.7 16.1 0.00 0.00 0.00 67 1014.3
20260905142006 30 297 8.0 16.1 0.00 0.00 0.00 71 1014.3
20260905141504 30 314 8.0 12.9 0.00 0.00 0.00 71 1014.3
20260905141006 29 311 8.0 12.9 0.00 0.00 0.00 71 1014.3
20260905140504 29 312 6.4 12.9 0.00 0.00 0.00 73 1014.3
20260905140004 28 329 4.8 11.3 0.00 0.00 0.00 74 1014.3
20260905135503 28 307 4.8 9.7 0.00 0.00 0.00 76 1014.2
20260905135006 28 263 3.2 9.7 0.00 0.00 0.00 75 1014.2
20260905134503 28 291 3.2 9.7 0.00 0.00 0.00 78 1014.2
20260905134006 27 270 3.2 9.7 0.00 0.00 0.00 79 1014.1
20260905133504 27 270 3.2 9.7 0.00 0.00 0.00 81 1014.1
20260905133006 27 260 3.2 9.7 0.00 0.00 0.00 81 1014.1
20260905132503 26 244 3.2 8.0 0.00 0.00 0.00 84 1014.0
20260905132007 26 268 3.2 8.0 0.00 0.00 0.00 84 1014.0